Weather History for Franklin, PA

Change the Weather History Date:

Thursday, January 9, 2014

  Actual Average Record
Temperature  
Mean Temperature 22 °F -  
Max Temperature 28 °F 29 °F 66 °F (1937)
Min Temperature 15 °F 13 °F -7 °F (1968)
Degree Days  
Heating Degree Days 44    
Moisture  
Dew Point 14 °F    
Average Humidity 73    
Maximum Humidity 86    
Minimum Humidity 64    
Precipitation  
Precipitation 0.00 in - - ()
Sea Level Pressure  
Sea Level Pressure 30.44 in    
Wind  
Wind Speed 5 mph (SSE)    
Max Wind Speed 10 mph    
Max Gust Speed -    
Visibility 10 miles    
Events      
Averages and records for this station are not official NWS values.
T = Trace of Precipitation, MM = Missing Value Source: NWS Daily Summary

Daily Weather History Graph

Daily Weather History Graph

Search for Another Location

Airport:

Trip Planner

Search our weather history database for the weather conditions in past years. The results will help you decide how hot, cold, wet, or windy it might be!

Date:

Astronomy

Jan. 09, 2014 Rise Set
Actual Time 7:45 AM EST 5:08 PM EST
Civil Twilight 7:14 AM EST 5:39 PM EST
Nautical Twilight 6:39 AM EST 6:13 PM EST
Astronomical Twilight 6:06 AM EST 6:47 PM EST
Moon 12:35 PM EST (1/9) 1:49 AM EST (1/9)
Length of Visible Light 10h 24m
Length of Day
9h 23m
Waxing Gibbous, 66% of the Moon is Illuminated
Jan 9
Waxing Gibbous
Jan 15
Full
Jan 24
Last Quarter
Jan 30
New
Feb 6
First Quarter

Hourly Weather History & Observations

Time (EST) Temp. Windchill Dew Point Humidity Pressure Visibility Wind Dir Wind Speed Gust Speed Precip Events Conditions
12:15 AM 19.4 °F 11.5 °F 14.0 °F 80% 30.40 in 9.0 mi WSW 5.8 mph - N/A   Overcast
12:35 AM 19.4 °F 12.8 °F 12.2 °F 74% 30.41 in 10.0 mi WSW 4.6 mph - N/A   Overcast
12:55 AM 19.4 °F 12.8 °F 12.2 °F 74% 30.41 in 10.0 mi West 4.6 mph - N/A   Overcast
1:15 AM 19.4 °F - 14.0 °F 80% 30.41 in 10.0 mi Calm Calm - N/A   Overcast
1:35 AM 17.6 °F - 12.2 °F 79% 30.41 in 10.0 mi Calm Calm - N/A   Overcast
1:55 AM 17.6 °F 10.7 °F 12.2 °F 79% 30.42 in 10.0 mi WNW 4.6 mph - N/A   Overcast
2:15 AM 17.6 °F 8.2 °F 12.2 °F 79% 30.43 in 10.0 mi WNW 6.9 mph - N/A   Overcast
2:35 AM 17.6 °F 8.2 °F 12.2 °F 79% 30.44 in 10.0 mi WNW 6.9 mph - N/A   Overcast
2:55 AM 17.6 °F 7.3 °F 10.4 °F 73% 30.45 in 10.0 mi West 8.1 mph - N/A   Overcast
3:15 AM 17.6 °F 10.7 °F 10.4 °F 73% 30.45 in 10.0 mi WNW 4.6 mph - N/A   Overcast
3:35 AM 17.6 °F 10.7 °F 10.4 °F 73% 30.45 in 10.0 mi West 4.6 mph - N/A   Overcast
3:55 AM 17.6 °F 10.7 °F 10.4 °F 73% 30.46 in 10.0 mi WSW 4.6 mph - N/A   Overcast
4:15 AM 17.6 °F 12.3 °F 10.4 °F 73% 30.46 in 10.0 mi West 3.5 mph - N/A   Overcast
4:35 AM 17.6 °F - 10.4 °F 73% 30.46 in 10.0 mi Calm Calm - N/A   Overcast
4:55 AM 17.6 °F 12.3 °F 10.4 °F 73% 30.47 in 10.0 mi WNW 3.5 mph - N/A   Overcast
5:15 AM 17.6 °F 12.3 °F 10.4 °F 73% 30.47 in 10.0 mi West 3.5 mph - N/A   Overcast
5:35 AM 17.6 °F - 10.4 °F 73% 30.47 in 10.0 mi Calm Calm - N/A   Overcast
5:55 AM 17.6 °F - 10.4 °F 73% 30.47 in 10.0 mi Calm Calm - N/A   Overcast
6:15 AM 17.6 °F - 8.6 °F 68% 30.47 in 10.0 mi Calm Calm - N/A   Overcast
6:35 AM 15.8 °F - 10.4 °F 79% 30.48 in 10.0 mi Calm Calm - N/A   Overcast
6:55 AM 15.8 °F - 10.4 °F 79% 30.49 in 10.0 mi Calm Calm - N/A   Overcast
7:15 AM 15.8 °F - 10.4 °F 79% 30.50 in 10.0 mi Calm Calm - N/A   Overcast
7:35 AM 15.8 °F - 10.4 °F 79% 30.50 in 10.0 mi Calm Calm - N/A   Overcast
7:55 AM 15.8 °F - 10.4 °F 79% 30.51 in 10.0 mi Calm Calm - N/A   Overcast
8:15 AM 15.8 °F 8.6 °F 8.6 °F 73% 30.51 in 10.0 mi ENE 4.6 mph - N/A   Overcast
8:35 AM 15.8 °F 7.2 °F 10.4 °F 79% 30.52 in 10.0 mi ESE 5.8 mph - N/A   Overcast
8:55 AM 15.8 °F 7.2 °F 8.6 °F 73% 30.53 in 10.0 mi SE 5.8 mph - N/A   Overcast
9:15 AM 17.6 °F 8.2 °F 10.4 °F 73% 30.54 in 10.0 mi ESE 6.9 mph - N/A   Overcast
9:35 AM 17.6 °F 10.7 °F 10.4 °F 73% 30.54 in 10.0 mi SSE 4.6 mph - N/A   Overcast
9:55 AM 17.6 °F 8.2 °F 10.4 °F 73% 30.54 in 10.0 mi ESE 6.9 mph - N/A   Overcast
10:15 AM 17.6 °F 8.2 °F 10.4 °F 73% 30.54 in 10.0 mi SE 6.9 mph - N/A   Overcast
10:35 AM 17.6 °F 8.2 °F 10.4 °F 73% 30.55 in 10.0 mi ESE 6.9 mph - N/A   Mostly Cloudy
10:55 AM 19.4 °F 10.4 °F 12.2 °F 74% 30.54 in 10.0 mi ESE 6.9 mph - N/A   Partly Cloudy
11:15 AM 19.4 °F 8.6 °F 10.4 °F 68% 30.53 in 10.0 mi East 9.2 mph - N/A   Clear
11:35 AM 19.4 °F 10.4 °F 12.2 °F 74% 30.51 in 10.0 mi SE 6.9 mph - N/A   Clear
11:55 AM 21.2 °F 13.6 °F 12.2 °F 68% 30.50 in 10.0 mi SE 5.8 mph - N/A   Clear
12:15 PM 21.2 °F 11.7 °F 12.2 °F 68% 30.48 in 10.0 mi ESE 8.1 mph - N/A   Clear
12:35 PM 21.2 °F 12.6 °F 12.2 °F 68% 30.47 in 10.0 mi East 6.9 mph - N/A   Clear
12:55 PM 23.0 °F 15.8 °F 14.0 °F 68% 30.46 in 10.0 mi SSE 5.8 mph - N/A   Clear
1:15 PM 24.8 °F 17.9 °F 14.0 °F 64% 30.44 in 10.0 mi SE 5.8 mph - N/A   Clear
1:35 PM 24.8 °F 15.3 °F 14.0 °F 64% 30.43 in 10.0 mi SE 9.2 mph - N/A   Clear
1:55 PM 24.8 °F 15.3 °F 14.0 °F 64% 30.42 in 10.0 mi SSE 9.2 mph - N/A   Clear
2:15 PM 26.6 °F 19.1 °F 15.8 °F 64% 30.42 in 10.0 mi SSE 6.9 mph - N/A   Clear
2:35 PM 26.6 °F 18.2 °F 15.8 °F 64% 30.43 in 10.0 mi SSE 8.1 mph - N/A   Clear
2:55 PM 26.6 °F 16.8 °F 15.8 °F 64% 30.43 in 10.0 mi South 10.4 mph - N/A   Clear
3:35 PM 26.6 °F 18.2 °F 15.8 °F 64% 30.43 in 10.0 mi SSE 8.1 mph - N/A   Clear
3:55 PM 26.6 °F 19.1 °F 15.8 °F 64% 30.41 in 10.0 mi ESE 6.9 mph - N/A   Clear
4:15 PM 26.6 °F 20.0 °F 15.8 °F 64% 30.42 in 10.0 mi SE 5.8 mph - N/A   Partly Cloudy
4:35 PM 26.6 °F 21.2 °F 15.8 °F 64% 30.43 in 10.0 mi SSE 4.6 mph - N/A   Scattered Clouds
4:55 PM 26.6 °F 20.0 °F 17.6 °F 69% 30.42 in 10.0 mi SE 5.8 mph - N/A   Scattered Clouds
5:15 PM 26.6 °F 20.0 °F 15.8 °F 64% 30.41 in 10.0 mi ESE 5.8 mph - N/A   Mostly Cloudy
6:15 PM 26.6 °F 19.1 °F 17.6 °F 69% 30.40 in 10.0 mi SE 6.9 mph - N/A   Overcast
6:35 PM 26.6 °F 19.1 °F 17.6 °F 69% 30.40 in 10.0 mi SE 6.9 mph - N/A   Mostly Cloudy
6:55 PM 26.6 °F 19.1 °F 17.6 °F 69% 30.39 in 10.0 mi ESE 6.9 mph - N/A   Mostly Cloudy
7:15 PM 26.6 °F 19.1 °F 17.6 °F 69% 30.39 in 10.0 mi SE 6.9 mph - N/A   Overcast
7:35 PM 26.6 °F 21.2 °F 17.6 °F 69% 30.40 in 10.0 mi South 4.6 mph - N/A   Overcast
7:55 PM 26.6 °F 19.1 °F 17.6 °F 69% 30.40 in 10.0 mi SSE 6.9 mph - N/A   Mostly Cloudy
8:15 PM 26.6 °F 20.0 °F 19.4 °F 74% 30.38 in 5.0 mi SE 5.8 mph - N/A   Overcast
8:35 PM 26.6 °F 18.2 °F 21.2 °F 80% 30.38 in 2.5 mi SE 8.1 mph - N/A   Overcast
8:55 PM 26.6 °F 20.0 °F 21.2 °F 80% 30.37 in 1.8 mi SE 5.8 mph - N/A   Overcast
9:15 PM 26.6 °F 20.0 °F 23.0 °F 86% 30.36 in 2.0 mi ESE 5.8 mph - N/A   Overcast
9:35 PM 26.6 °F 19.1 °F 21.2 °F 80% 30.35 in 6.0 mi ESE 6.9 mph - N/A   Overcast
9:55 PM 26.6 °F 20.0 °F 23.0 °F 86% 30.35 in 10.0 mi ESE 5.8 mph - N/A   Overcast
10:15 PM 26.6 °F 20.0 °F 23.0 °F 86% 30.34 in 10.0 mi ESE 5.8 mph - N/A   Overcast
10:35 PM 26.6 °F 20.0 °F 23.0 °F 86% 30.35 in 10.0 mi SSE 5.8 mph - N/A   Overcast
10:55 PM 26.6 °F 18.2 °F 23.0 °F 86% 30.34 in 10.0 mi SSE 8.1 mph - N/A   Overcast
11:15 PM 28.4 °F 22.2 °F 21.2 °F 74% 30.34 in 10.0 mi SE 5.8 mph - N/A   Overcast
11:35 PM 28.4 °F 22.2 °F 21.2 °F 74% 30.33 in 10.0 mi South 5.8 mph - N/A   Overcast
11:55 PM 28.4 °F 19.7 °F 21.2 °F 74% 30.34 in 9.0 mi South 9.2 mph - N/A   Overcast